KB4ID Weather Reports


Display with metric or nautical units.
time (UTC)temp
F
wind
direction
speed
MPH
gust
MPH
rain 1hr
in
rain 24hr
in
rain mn
in
humidity
%
barometer
mb
20210730091405 76 74 0.0 0.0 0.00 0.00 0.00 97 1009.8
20210730090406 76 74 0.0 0.0 0.00 0.00 0.00 97 1009.8
20210730085404 76 74 0.0 0.0 0.00 0.00 0.00 97 1009.8
20210730083404 76 74 0.0 0.0 0.00 0.00 0.00 97 1009.8
20210730082405 76 74 0.0 0.0 0.00 0.00 0.00 96 1009.8
20210730081404 76 74 0.0 0.0 0.00 0.00 0.00 96 1009.8
20210730080405 76 74 0.0 0.0 0.00 0.00 0.00 96 1009.8
20210730073404 77 72 0.0 0.0 0.00 0.00 0.00 96 1009.4
20210730072406 77 73 0.0 0.0 0.00 0.00 0.00 96 1009.1
20210730071405 77 73 0.0 0.0 0.00 0.00 0.00 96 1009.4
20210730064405 77 72 0.0 0.0 0.00 0.00 0.00 96 1010.1
20210730063407 77 72 0.0 0.0 0.00 0.00 0.00 96 1009.4
20210730061409 78 73 0.0 0.0 0.00 0.00 0.00 96 1009.8
20210730060408 78 73 0.0 0.0 0.00 0.00 0.00 95 1009.8
20210730054411 78 72 0.0 0.0 0.00 0.00 0.00 95 1009.8
20210730052410 79 72 0.0 0.0 0.00 0.00 0.00 94 1010.1
20210730044408 79 44 0.0 0.0 0.00 0.00 0.00 94 1010.8
20210730043408 79 44 0.0 0.0 0.00 0.00 0.00 94 1010.8
20210730040410 79 49 0.0 0.0 0.00 0.00 0.00 94 1011.1
20210730035409 79 49 0.0 0.0 0.00 0.00 0.00 94 1010.8
20210730032408 79 41 0.0 0.0 0.00 0.00 0.00 94 1011.8
20210730031407 79 41 0.0 0.0 0.00 0.00 0.00 94 1011.8
20210730025408 79 41 0.0 0.0 0.00 0.00 0.00 95 1011.8
20210730024412 79 41 0.0 0.0 0.00 0.00 0.00 95 1012.1
20210730023407 79 41 0.0 0.0 0.00 0.00 0.00 95 1012.1
20210730010407 80 41 0.0 0.0 0.00 0.00 0.00 94 1011.1
20210730005408 80 41 0.0 0.0 0.00 0.00 0.00 94 1011.1
20210730004408 81 41 0.0 0.0 0.00 0.00 0.00 94 1010.8
20210730003411 81 41 0.0 0.0 0.00 0.00 0.00 93 1011.1
20210730002407 82 41 0.0 0.0 0.00 0.00 0.00 93 1011.1
20210730001409 82 41 0.0 0.0 0.00 0.00 0.00 92 1011.1
20210730000408 83 41 0.0 0.0 0.00 0.00 0.00 91 1011.1
20210729235406 83 41 0.0 0.0 0.00 0.00 0.00 91 1011.1
20210729234411 83 41 0.0 0.0 0.00 0.00 0.00 90 1011.1
20210729232411 84 41 0.0 0.0 0.00 0.00 0.00 89 1010.8
20210729230406 85 41 0.0 0.0 0.00 0.00 0.00 89 1010.8
20210729224408 85 41 0.0 0.0 0.00 0.00 0.00 87 1010.8
20210729223408 85 41 0.0 0.0 0.00 0.00 0.00 87 1010.8
20210729222406 85 41 0.0 0.0 0.00 0.00 0.00 86 1010.8
20210729221407 85 41 0.0 0.0 0.00 0.00 0.00 85 1010.8
20210729215408 86 41 0.0 0.0 0.00 0.00 0.00 85 1010.8
20210729214416 86 41 0.0 0.0 0.00 0.00 0.00 80 1011.1
20210729211407 88 41 0.0 0.0 0.00 0.00 0.00 81 1011.1
20210729210405 88 41 0.0 0.0 0.00 0.00 0.00 78 1011.5
20210729205406 89 41 0.0 0.0 0.00 0.00 0.00 77 1011.5
20210729204406 89 44 0.0 0.0 0.00 0.00 0.00 76 1011.5
20210729203405 89 51 0.0 0.0 0.00 0.00 0.00 75 1011.8
20210729200405 90 101 0.0 0.0 0.00 0.00 0.00 73 1011.5
20210729195406 90 26 0.0 0.0 0.00 0.00 0.00 77 1011.5
20210729192407 88 22 0.0 0.0 0.00 0.00 0.00 76 1011.8
20210729190406 89 22 0.0 0.0 0.00 0.00 0.00 78 1012.1
20210729185405 89 22 0.0 0.0 0.00 0.00 0.00 76 1012.1
20210729184406 90 22 0.0 1.0 0.00 0.00 0.00 79 1012.5
20210729182406 91 123 0.0 0.0 0.00 0.00 0.00 73 1012.8
20210729181406 90 102 0.0 0.0 0.00 0.00 0.00 78 1012.8
20210729180406 89 62 0.0 0.0 0.00 0.00 0.00 75 1012.8
20210729174406 89 50 0.0 1.0 0.00 0.00 0.00 73 1013.5
20210729171405 89 60 0.0 0.0 0.00 0.00 0.00 73 1013.8
20210729170405 89 62 0.0 0.0 0.00 0.00 0.00 74 1013.8
20210729165406 89 46 0.0 0.0 0.00 0.00 0.00 74 1014.2
20210729164405 89 337 0.0 0.0 0.00 0.00 0.00 74 1014.2
20210729162407 88 37 0.0 0.0 0.00 0.00 0.00 77 1014.5
20210729154405 86 41 0.0 0.0 0.00 0.00 0.00 81 1014.8
20210729153405 86 29 0.0 0.0 0.00 0.00 0.00 80 1015.2
20210729151405 84 17 0.0 0.0 0.00 0.00 0.00 83 1015.2
20210729150405 83 15 0.0 0.0 0.00 0.00 0.00 84 1015.2
20210729145405 82 17 0.0 0.0 0.00 0.00 0.00 86 1015.5
20210729144407 81 17 0.0 0.0 0.00 0.00 0.00 87 1015.5
20210729143405 80 349 0.0 0.0 0.00 0.00 0.00 90 1015.2
20210729142407 79 349 0.0 0.0 0.00 0.00 0.00 92 1015.2
20210729141407 78 349 0.0 0.0 0.00 0.00 0.00 93 1015.2
20210729140407 77 349 0.0 0.0 0.00 0.00 0.00 95 1014.8
20210729134405 76 346 0.0 0.0 0.00 0.00 0.00 98 1014.8
20210729132406 74 322 0.0 0.0 0.00 0.00 0.00 100 1014.8
20210729131405 73 322 0.0 0.0 0.00 0.00 0.00 100 1014.8
20210729130408 73 322 0.0 0.0 0.00 0.00 0.00 100 1014.8
20210729125405 72 322 0.0 0.0 0.00 0.00 0.00 100 1015.2
20210729123406 71 322 0.0 0.0 0.00 0.00 0.00 100 1014.8
20210729122406 70 322 0.0 0.0 0.00 0.00 0.00 100 1014.8
20210729121406 70 322 0.0 0.0 0.00 0.00 0.00 100 1015.2
20210729120405 70 322 0.0 0.0 0.00 0.00 0.00 100 1014.8
20210729115405 69 322 0.0 0.0 0.00 0.00 0.00 100 1014.8
20210729114406 69 322 0.0 0.0 0.00 0.00 0.00 100 1014.8
20210729113405 69 322 0.0 0.0 0.00 0.00 0.00 100 1014.8
20210729112405 68 322 0.0 0.0 0.00 0.00 0.00 99 1014.8
20210729103405 69 322 0.0 0.0 0.00 0.00 0.00 98 1014.8
20210729101406 69 322 0.0 0.0 0.00 0.00 0.00 98 1014.8
20210729100404 69 322 0.0 0.0 0.00 0.00 0.00 98 1014.5
20210729095406 69 322 0.0 0.0 0.00 0.00 0.00 98 1014.8
20210729094405 69 322 0.0 0.0 0.00 0.00 0.00 98 1014.5